| time (UTC) | temp C | wind direction | speed KPH | gust KPH | rain 1hr cm | rain 24hr cm | rain mn cm | humidity % | barometer mb |
| 20260505034718 | 20 | 92 | 1.6 | 6.4 | 0.00 | 0.76 | 0.64 | 70 | 1002.2 |
| 20260505034713 | 20 | 224 | 1.6 | 6.4 | 0.00 | 0.76 | 0.64 | 70 | 1002.4 |
| 20260505034329 | 20 | 222 | 1.6 | 4.8 | 0.00 | 0.76 | 0.64 | 70 | 1002.6 |
| 20260505033213 | 21 | 239 | 1.6 | 4.8 | 0.00 | 0.76 | 0.64 | 69 | 1002.5 |
| 20260505032709 | 21 | 251 | 1.6 | 4.8 | 0.00 | 0.76 | 0.64 | 69 | 1002.5 |
| 20260505032209 | 21 | 99 | 1.6 | 4.8 | 0.00 | 0.76 | 0.64 | 69 | 1002.5 |
| 20260505031709 | 21 | 212 | 1.6 | 3.2 | 0.00 | 0.76 | 0.64 | 69 | 1002.5 |
| 20260505031205 | 21 | 250 | 1.6 | 3.2 | 0.00 | 0.76 | 0.64 | 69 | 1002.5 |
| 20260505030706 | 21 | 230 | 1.6 | 6.4 | 0.00 | 0.76 | 0.64 | 68 | 1002.5 |
| 20260505030205 | 21 | 229 | 1.6 | 6.4 | 0.00 | 0.76 | 0.64 | 68 | 1002.4 |
| 20260505025706 | 21 | 39 | 1.6 | 3.2 | 0.00 | 0.76 | 0.64 | 69 | 1002.4 |
| 20260505025204 | 21 | 222 | 1.6 | 3.2 | 0.00 | 0.76 | 0.64 | 69 | 1002.4 |
| 20260505024702 | 21 | 246 | 1.6 | 3.2 | 0.00 | 0.76 | 0.64 | 69 | 1002.3 |
| 20260505024200 | 21 | 217 | 1.6 | 3.2 | 0.00 | 0.76 | 0.64 | 69 | 1002.2 |
| 20260505023705 | 21 | 228 | 1.6 | 6.4 | 0.00 | 0.76 | 0.64 | 67 | 1001.8 |
| 20260505023700 | 21 | 233 | 1.6 | 3.2 | 0.00 | 0.76 | 0.64 | 69 | 1002.1 |
| 20260505023158 | 21 | 243 | 1.6 | 3.2 | 0.00 | 0.76 | 0.64 | 68 | 1002.0 |
| 20260505022151 | 21 | 99 | 1.6 | 6.4 | 0.00 | 0.76 | 0.64 | 66 | 1001.7 |
| 20260505021651 | 21 | 231 | 1.6 | 3.2 | 0.00 | 0.76 | 0.64 | 67 | 1001.6 |
| 20260505021153 | 22 | 231 | 1.6 | 3.2 | 0.00 | 0.76 | 0.64 | 66 | 1001.5 |
| 20260505020652 | 22 | 215 | 1.6 | 3.2 | 0.00 | 0.76 | 0.64 | 65 | 1001.4 |
| 20260505020150 | 22 | 233 | 1.6 | 4.8 | 0.00 | 0.76 | 0.64 | 65 | 1001.4 |
| 20260505015653 | 22 | 232 | 1.6 | 3.2 | 0.00 | 0.76 | 0.64 | 64 | 1001.3 |
| 20260505015649 | 22 | 222 | 1.6 | 4.8 | 0.00 | 0.76 | 0.64 | 64 | 1001.3 |
| 20260505015306 | 23 | 91 | 3.2 | 4.8 | 0.00 | 0.76 | 0.64 | 62 | 1001.2 |
| 20260505014805 | 23 | 224 | 3.2 | 4.8 | 0.00 | 0.76 | 0.64 | 61 | 1001.2 |
| 20260505013650 | 23 | 173 | 3.2 | 11.3 | 0.00 | 0.76 | 0.64 | 61 | 1001.0 |
| 20260505013645 | 23 | 226 | 3.2 | 11.3 | 0.00 | 0.76 | 0.64 | 61 | 1001.1 |
| 20260505012645 | 23 | 226 | 3.2 | 4.8 | 0.00 | 0.76 | 0.64 | 62 | 1000.9 |
| 20260505012141 | 23 | 214 | 3.2 | 4.8 | 0.00 | 0.76 | 0.64 | 62 | 1001.0 |
| 20260505011640 | 23 | 219 | 3.2 | 8.0 | 0.00 | 0.76 | 0.64 | 63 | 1001.0 |
| 20260505011140 | 23 | 222 | 3.2 | 8.0 | 0.00 | 0.76 | 0.64 | 62 | 1001.0 |
| 20260505010639 | 23 | 232 | 3.2 | 6.4 | 0.00 | 0.76 | 0.64 | 62 | 1000.9 |
| 20260505010140 | 23 | 224 | 3.2 | 6.4 | 0.00 | 0.76 | 0.64 | 62 | 1000.8 |
| 20260505005645 | 23 | 224 | 3.2 | 6.4 | 0.00 | 0.76 | 0.64 | 63 | 1000.7 |
| 20260505005640 | 23 | 224 | 3.2 | 6.4 | 0.00 | 0.76 | 0.64 | 63 | 1000.8 |
| 20260505005257 | 23 | 336 | 3.2 | 8.0 | 0.00 | 0.76 | 0.64 | 64 | 1000.6 |
| 20260505004137 | 23 | 236 | 3.2 | 8.0 | 0.00 | 0.76 | 0.64 | 63 | 1000.5 |
| 20260505003636 | 22 | 203 | 3.2 | 8.0 | 0.00 | 0.76 | 0.64 | 65 | 1000.5 |
| 20260505003137 | 22 | 222 | 3.2 | 6.4 | 0.00 | 0.76 | 0.64 | 67 | 1000.5 |
| 20260505002637 | 21 | 245 | 0.0 | 3.2 | 0.00 | 0.76 | 0.64 | 75 | 1000.6 |
| 20260505002632 | 21 | 232 | 1.6 | 4.8 | 0.00 | 0.76 | 0.64 | 71 | 1000.5 |
| 20260505002251 | 21 | 169 | 0.0 | 3.2 | 0.00 | 0.76 | 0.64 | 75 | 1000.6 |
| 20260505001130 | 21 | 105 | 0.0 | 1.6 | 0.00 | 0.76 | 0.64 | 77 | 1000.6 |
| 20260505000629 | 21 | 102 | 0.0 | 1.6 | 0.00 | 0.76 | 0.64 | 77 | 1000.6 |
| 20260505000127 | 21 | 99 | 0.0 | 4.8 | 0.00 | 0.76 | 0.64 | 77 | 1000.6 |
| 20260504235624 | 21 | 99 | 0.0 | 4.8 | 0.00 | 0.76 | 0.64 | 77 | 1000.7 |
| 20260504235123 | 21 | 240 | 0.0 | 0.0 | 0.00 | 0.76 | 0.64 | 77 | 1000.6 |
| 20260504234621 | 21 | 240 | 0.0 | 0.0 | 0.00 | 0.76 | 0.64 | 77 | 1000.7 |
| 20260504234126 | 21 | 240 | 0.0 | 1.6 | 0.00 | 0.76 | 0.64 | 76 | 1000.6 |
| 20260504234121 | 21 | 240 | 0.0 | 0.0 | 0.00 | 0.76 | 0.64 | 77 | 1000.6 |
| 20260504233120 | 22 | 240 | 0.0 | 3.2 | 0.00 | 0.76 | 0.64 | 76 | 1000.7 |
| 20260504232621 | 22 | 240 | 1.6 | 8.0 | 0.00 | 0.76 | 0.64 | 73 | 1000.7 |
| 20260504232120 | 22 | 236 | 1.6 | 8.0 | 0.00 | 0.76 | 0.64 | 72 | 1000.3 |
| 20260504231621 | 22 | 219 | 0.0 | 6.4 | 0.00 | 0.76 | 0.64 | 70 | 1000.1 |
| 20260504231117 | 22 | 259 | 0.0 | 1.6 | 0.00 | 0.76 | 0.64 | 71 | 1000.4 |
| 20260504230619 | 22 | 259 | 0.0 | 3.2 | 0.00 | 0.76 | 0.64 | 70 | 1000.8 |
| 20260504230118 | 23 | 300 | 1.6 | 3.2 | 0.00 | 0.76 | 0.64 | 68 | 1000.8 |
| 20260504225618 | 23 | 222 | 1.6 | 6.4 | 0.00 | 0.76 | 0.64 | 67 | 1001.0 |
| 20260504225119 | 23 | 212 | 1.6 | 8.0 | 0.00 | 0.76 | 0.64 | 65 | 1001.2 |
| 20260504224619 | 23 | 195 | 1.6 | 8.0 | 0.00 | 0.76 | 0.64 | 65 | 1001.4 |
| 20260504224118 | 23 | 210 | 1.6 | 6.4 | 0.00 | 0.76 | 0.64 | 64 | 1001.5 |
| 20260504223618 | 23 | 230 | 1.6 | 9.7 | 0.00 | 0.76 | 0.64 | 65 | 1001.6 |
| 20260504223119 | 23 | 225 | 1.6 | 9.7 | 0.00 | 0.76 | 0.64 | 67 | 1001.7 |
| 20260504222619 | 23 | 229 | 3.2 | 11.3 | 0.00 | 0.76 | 0.64 | 63 | 1001.8 |
| 20260504222123 | 24 | 232 | 1.6 | 8.0 | 0.00 | 0.76 | 0.64 | 62 | 1001.8 |
| 20260504222118 | 23 | 232 | 3.2 | 11.3 | 0.00 | 0.76 | 0.64 | 62 | 1001.8 |
| 20260504221119 | 24 | 73 | 3.2 | 8.0 | 0.00 | 0.76 | 0.64 | 61 | 1001.7 |
| 20260504220617 | 24 | 225 | 3.2 | 8.0 | 0.00 | 0.76 | 0.64 | 62 | 1001.8 |
| 20260504220116 | 25 | 117 | 3.2 | 6.4 | 0.00 | 0.76 | 0.64 | 62 | 1001.7 |
| 20260504215616 | 25 | 239 | 3.2 | 8.0 | 0.00 | 0.76 | 0.64 | 62 | 1001.8 |
| 20260504215115 | 24 | 229 | 3.2 | 8.0 | 0.00 | 0.76 | 0.64 | 62 | 1001.7 |
| 20260504214615 | 24 | 225 | 3.2 | 9.7 | 0.00 | 0.76 | 0.64 | 61 | 1001.7 |
| 20260504214116 | 24 | 157 | 4.8 | 17.7 | 0.00 | 0.76 | 0.64 | 60 | 1001.6 |
| 20260504213615 | 25 | 243 | 4.8 | 17.7 | 0.00 | 0.76 | 0.64 | 59 | 1001.6 |
| 20260504213117 | 25 | 232 | 4.8 | 12.9 | 0.00 | 0.76 | 0.64 | 62 | 1001.7 |
| 20260504212615 | 25 | 230 | 4.8 | 11.3 | 0.00 | 0.76 | 0.64 | 61 | 1001.8 |
| 20260504212121 | 25 | 211 | 4.8 | 22.5 | 0.00 | 0.76 | 0.64 | 59 | 1002.0 |
| 20260504212115 | 25 | 240 | 4.8 | 22.5 | 0.00 | 0.76 | 0.64 | 60 | 1001.9 |
| 20260504211735 | 25 | 205 | 4.8 | 9.7 | 0.00 | 0.76 | 0.64 | 61 | 1002.0 |
| 20260504210616 | 25 | 253 | 4.8 | 11.3 | 0.00 | 0.76 | 0.64 | 62 | 1002.1 |
| 20260504210116 | 24 | 266 | 4.8 | 11.3 | 0.00 | 0.76 | 0.64 | 62 | 1002.1 |
| 20260504205622 | 24 | 226 | 3.2 | 9.7 | 0.00 | 0.76 | 0.64 | 63 | 1002.2 |
| 20260504205617 | 24 | 225 | 3.2 | 11.3 | 0.00 | 0.76 | 0.64 | 62 | 1002.1 |
| 20260504205234 | 24 | 232 | 4.8 | 9.7 | 0.00 | 0.76 | 0.64 | 65 | 1002.4 |
| 20260504204121 | 23 | 225 | 3.2 | 11.3 | 0.00 | 0.76 | 0.64 | 69 | 1002.4 |
| 20260504204116 | 23 | 224 | 3.2 | 11.3 | 0.00 | 0.76 | 0.64 | 65 | 1002.4 |
| 20260504203116 | 23 | 235 | 4.8 | 12.9 | 0.00 | 0.76 | 0.64 | 68 | 1002.5 |
| 20260504202616 | 23 | 230 | 4.8 | 12.9 | 0.00 | 0.76 | 0.64 | 69 | 1002.5 |
| 20260504202115 | 23 | 326 | 4.8 | 11.3 | 0.00 | 0.76 | 0.64 | 70 | 1002.4 |
| 20260504201616 | 23 | 128 | 3.2 | 11.3 | 0.00 | 0.76 | 0.64 | 68 | 1002.6 |
| 20260504201117 | 23 | 236 | 3.2 | 11.3 | 0.00 | 0.76 | 0.64 | 68 | 1002.7 |
| 20260504200615 | 23 | 200 | 3.2 | 4.8 | 0.00 | 0.76 | 0.64 | 71 | 1002.9 |
| 20260504200116 | 23 | 219 | 3.2 | 8.0 | 0.00 | 0.76 | 0.64 | 71 | 1002.9 |
| 20260504195621 | 22 | 240 | 4.8 | 14.5 | 0.00 | 0.76 | 0.64 | 71 | 1002.9 |
| 20260504195616 | 22 | 217 | 3.2 | 8.0 | 0.00 | 0.76 | 0.64 | 73 | 1002.9 |
| 20260504194617 | 22 | 215 | 4.8 | 14.5 | 0.00 | 0.76 | 0.64 | 72 | 1002.8 |
| 20260504194116 | 21 | 239 | 4.8 | 14.5 | 0.00 | 0.76 | 0.64 | 74 | 1002.6 |
| 20260504193621 | 18 | 239 | 3.2 | 11.3 | 0.00 | 0.76 | 0.64 | 81 | 1001.9 |
| 20260504193616 | 20 | 259 | 3.2 | 14.5 | 0.00 | 0.76 | 0.64 | 79 | 1002.4 |
| 20260504192615 | 18 | 237 | 3.2 | 9.7 | 0.00 | 0.76 | 0.64 | 84 | 1001.5 |
| 20260504192116 | 18 | 309 | 3.2 | 9.7 | 0.00 | 0.76 | 0.64 | 84 | 1001.5 |
| 20260504191621 | 18 | 219 | 3.2 | 14.5 | 0.00 | 0.76 | 0.64 | 83 | 1002.5 |
| 20260504191616 | 18 | 253 | 3.2 | 14.5 | 0.00 | 0.76 | 0.64 | 84 | 1001.7 |
| 20260504190617 | 18 | 138 | 1.6 | 9.7 | 0.00 | 0.76 | 0.64 | 84 | 1003.4 |
| 20260504190115 | 18 | 278 | 1.6 | 6.4 | 0.00 | 0.76 | 0.64 | 83 | 1003.5 |
| 20260504185616 | 18 | 22 | 1.6 | 4.8 | 0.03 | 0.76 | 0.64 | 84 | 1003.5 |
| 20260504185115 | 18 | 238 | 1.6 | 6.4 | 0.03 | 0.76 | 0.64 | 86 | 1003.8 |
| 20260504184616 | 18 | 84 | 1.6 | 8.0 | 0.18 | 0.76 | 0.64 | 89 | 1003.9 |
| 20260504184115 | 17 | 233 | 1.6 | 8.0 | 0.30 | 0.76 | 0.64 | 91 | 1003.9 |
| 20260504183616 | 17 | 88 | 0.0 | 4.8 | 0.48 | 0.76 | 0.64 | 92 | 1003.9 |
| 20260504183115 | 16 | 314 | 0.0 | 3.2 | 0.56 | 0.76 | 0.64 | 92 | 1003.9 |
| 20260504182616 | 16 | 47 | 0.0 | 3.2 | 0.56 | 0.76 | 0.64 | 92 | 1003.9 |
| 20260504182120 | 16 | 102 | 0.0 | 6.4 | 0.58 | 0.76 | 0.64 | 92 | 1004.1 |
| 20260504182116 | 16 | 273 | 0.0 | 3.2 | 0.56 | 0.76 | 0.64 | 92 | 1003.9 |
| 20260504181116 | 16 | 338 | 1.6 | 9.7 | 0.58 | 0.76 | 0.64 | 91 | 1004.4 |
| 20260504180616 | 16 | 135 | 1.6 | 11.3 | 0.61 | 0.76 | 0.64 | 91 | 1004.4 |
| 20260504180116 | 16 | 62 | 1.6 | 11.3 | 0.61 | 0.76 | 0.64 | 90 | 1004.4 |
| 20260504175735 | 16 | 241 | 3.2 | 9.7 | 0.43 | 0.58 | 0.46 | 87 | 1004.3 |
| 20260504175621 | 16 | 86 | 3.2 | 6.4 | 0.58 | 0.74 | 0.61 | 89 | 1004.3 |
| 20260504175616 | 16 | 233 | 3.2 | 8.0 | 0.58 | 0.74 | 0.61 | 89 | 1004.3 |
| 20260504174117 | 17 | 215 | 3.2 | 9.7 | 0.30 | 0.46 | 0.41 | 86 | 1004.3 |
| 20260504173617 | 17 | 165 | 1.6 | 4.8 | 0.13 | 0.28 | 0.18 | 86 | 1004.7 |
| 20260504173115 | 17 | 222 | 1.6 | 4.8 | 0.05 | 0.20 | 0.08 | 84 | 1004.9 |
| 20260504172621 | 17 | 274 | 0.0 | 3.2 | 0.05 | 0.20 | 0.08 | 83 | 1004.2 |
| 20260504172616 | 17 | 225 | 1.6 | 3.2 | 0.05 | 0.20 | 0.08 | 83 | 1004.4 |
| 20260504172234 | 17 | 266 | 0.0 | 1.6 | 0.03 | 0.18 | 0.05 | 82 | 1004.2 |
| 20260504171115 | 18 | 219 | 0.0 | 1.6 | 0.03 | 0.18 | 0.05 | 82 | 1004.6 |
| 20260504170621 | 18 | 222 | 0.0 | 1.6 | 0.00 | 0.15 | 0.03 | 79 | 1004.9 |
| 20260504170616 | 18 | 222 | 0.0 | 1.6 | 0.00 | 0.15 | 0.03 | 82 | 1004.9 |
| 20260504160121 | 19 | 245 | 3.2 | 6.4 | 0.00 | 0.15 | 0.03 | 66 | 1005.1 |
| 20260504160115 | 19 | 214 | 3.2 | 16.1 | 0.00 | 0.15 | 0.03 | 70 | 1005.3 |
| 20260504151116 | 20 | 238 | 3.2 | 4.8 | 0.00 | 0.15 | 0.03 | 65 | 1005.9 |
| 20260504150617 | 20 | 205 | 3.2 | 4.8 | 0.00 | 0.15 | 0.03 | 64 | 1005.8 |
| 20260504150116 | 20 | 222 | 3.2 | 4.8 | 0.00 | 0.15 | 0.03 | 65 | 1005.8 |
| 20260504141121 | 21 | 231 | 1.6 | 4.8 | 0.00 | 0.15 | 0.03 | 68 | 1005.9 |
| 20260504141115 | 21 | 217 | 1.6 | 9.7 | 0.00 | 0.15 | 0.03 | 68 | 1005.9 |
| 20260504140115 | 21 | 241 | 3.2 | 8.0 | 0.00 | 0.15 | 0.03 | 69 | 1006.0 |
| 20260504130619 | 17 | 235 | 1.6 | 6.4 | 0.00 | 0.15 | 0.03 | 80 | 1006.6 |
| 20260504130614 | 17 | 311 | 1.6 | 6.4 | 0.00 | 0.15 | 0.03 | 83 | 1006.8 |
| 20260504120114 | 15 | 236 | 1.6 | 3.2 | 0.00 | 0.15 | 0.03 | 84 | 1006.8 |
| 20260504110613 | 13 | 248 | 0.0 | 1.6 | 0.00 | 0.15 | 0.03 | 91 | 1006.9 |
| 20260504110119 | 13 | 248 | 0.0 | 0.0 | 0.00 | 0.15 | 0.03 | 93 | 1007.0 |
| 20260504110114 | 13 | 248 | 0.0 | 0.0 | 0.00 | 0.15 | 0.03 | 93 | 1007.0 |
| 20260504100614 | 13 | 248 | 0.0 | 0.0 | 0.00 | 0.15 | 0.03 | 91 | 1007.1 |
| 20260504100114 | 13 | 248 | 0.0 | 0.0 | 0.00 | 0.15 | 0.03 | 91 | 1007.1 |
| 20260504090115 | 13 | 338 | 0.0 | 1.6 | 0.00 | 0.15 | 0.03 | 90 | 1007.0 |
| 20260504081615 | 14 | 33 | 0.0 | 0.0 | 0.00 | 0.15 | 0.03 | 92 | 1007.0 |
| 20260504081114 | 14 | 33 | 0.0 | 0.0 | 0.00 | 0.15 | 0.03 | 91 | 1007.1 |
| 20260504080614 | 14 | 33 | 0.0 | 0.0 | 0.00 | 0.15 | 0.03 | 91 | 1007.2 |
| 20260504080114 | 14 | 33 | 0.0 | 0.0 | 0.00 | 0.15 | 0.03 | 91 | 1007.2 |
| 20260504070230 | 14 | 122 | 0.0 | 1.6 | 0.03 | 0.15 | 0.03 | 93 | 1007.6 |
| 20260504060114 | 14 | 53 | 0.0 | 3.2 | 0.00 | 0.13 | 0.00 | 94 | 1008.5 |
| 20260504050614 | 13 | 297 | 0.0 | 0.0 | 0.13 | 0.13 | 0.00 | 91 | 1007.1 |
| 20260504050115 | 14 | 297 | 0.0 | 0.0 | 0.13 | 0.13 | 0.00 | 91 | 1007.0 |
| 20260504045614 | 14 | 297 | 0.0 | 0.0 | 0.13 | 0.13 | 0.13 | 90 | 1007.0 |
| 20260504045113 | 14 | 297 | 0.0 | 0.0 | 0.13 | 0.13 | 0.13 | 89 | 1007.0 |
| 20260504044612 | 15 | 297 | 0.0 | 0.0 | 0.13 | 0.13 | 0.13 | 88 | 1007.2 |
| 20260504044114 | 15 | 297 | 0.0 | 0.0 | 0.13 | 0.13 | 0.13 | 87 | 1007.0 |
| 20260504043612 | 15 | 297 | 0.0 | 0.0 | 0.13 | 0.13 | 0.13 | 86 | 1006.8 |
| 20260504043111 | 15 | 297 | 0.0 | 0.0 | 0.13 | 0.13 | 0.13 | 85 | 1006.6 |
| 20260504042611 | 16 | 297 | 0.0 | 0.0 | 0.13 | 0.13 | 0.13 | 82 | 1007.0 |
| 20260504042113 | 16 | 297 | 0.0 | 0.0 | 0.13 | 0.13 | 0.13 | 80 | 1007.3 |
| 20260504041611 | 17 | 297 | 0.0 | 0.0 | 0.10 | 0.10 | 0.10 | 76 | 1007.8 |
| 20260504041113 | 18 | 252 | 0.0 | 3.2 | 0.03 | 0.03 | 0.03 | 70 | 1008.2 |
| 20260504040612 | 18 | 246 | 0.0 | 3.2 | 0.00 | 0.00 | 0.00 | 63 | 1007.6 |
| 20260504040113 | 18 | 204 | 0.0 | 1.6 | 0.00 | 0.00 | 0.00 | 62 | 1007.4 |
| 20260504035611 | 18 | 204 | 1.6 | 1.6 | 0.00 | 0.00 | 0.00 | 61 | 1007.5 |